Location: *
(31.2983°S, 151.4094°E)
Time: 08:11:18
(UTC+00:00)

Milstar 3 - Pass Details

Date: 25 August 2019
Orbit: 1111 x 5134 km, 28.2° (Epoch: 06 September)

Event Time Altitude Azimuth Distance (km) Brightness Sun altitude
Exits shadow 17:44:58 31° 11° (N) 1,873 3.9 -33.5°
Maximum altitude 17:45:57 33° 27° (NNE) 1,863 4.0 -33.3°
Drops below altitude 10° 17:53:03 10° 88° (E) 3,592 6.3 -31.8°
Sets 17:57:03 0° 97° (E) 4,995 7.4 -30.9°
